Year,Month,Day,Hour,Minute,Value (Times are PST for temperature in C)
2021,06,28,00,00,28.30
2021,06,28,00,01,28.20
2021,06,28,00,02,28.10
2021,06,28,00,03,28.00
2021,06,28,00,04,27.90
2021,06,28,00,05,27.80
2021,06,28,00,06,27.70
2021,06,28,00,07,27.60
2021,06,28,00,08,27.60
2021,06,28,00,09,27.50
2021,06,28,00,10,27.50
2021,06,28,00,11,27.40
2021,06,28,00,12,27.30
2021,06,28,00,13,27.30
2021,06,28,00,14,27.20
2021,06,28,00,15,27.20
2021,06,28,00,16,27.10
2021,06,28,00,17,27.00
2021,06,28,00,18,27.00
2021,06,28,00,19,27.00
2021,06,28,00,20,26.90
2021,06,28,00,21,26.90
2021,06,28,00,22,27.00
2021,06,28,00,23,27.00
2021,06,28,00,24,27.10
2021,06,28,00,25,27.20
2021,06,28,00,26,27.20
2021,06,28,00,27,27.20
2021,06,28,00,28,27.20
2021,06,28,00,29,27.20
2021,06,28,00,30,27.20
2021,06,28,00,31,27.10
2021,06,28,00,32,27.10
2021,06,28,00,33,27.10
2021,06,28,00,34,27.00
2021,06,28,00,35,27.00
2021,06,28,00,36,27.00
2021,06,28,00,37,26.90
2021,06,28,00,38,26.90
2021,06,28,00,39,26.80
2021,06,28,00,40,26.80
2021,06,28,00,41,26.80
2021,06,28,00,42,26.80
2021,06,28,00,43,26.80
2021,06,28,00,44,26.80
2021,06,28,00,45,26.80
2021,06,28,00,46,26.80
2021,06,28,00,47,26.70
2021,06,28,00,48,26.70
2021,06,28,00,49,26.60
2021,06,28,00,50,26.60
2021,06,28,00,51,26.60
2021,06,28,00,52,26.60
2021,06,28,00,53,26.50
2021,06,28,00,54,26.50
2021,06,28,00,55,26.50
2021,06,28,00,56,26.40
2021,06,28,00,57,26.40
2021,06,28,00,58,26.30
2021,06,28,00,59,26.30
2021,06,28,01,00,26.30
2021,06,28,01,01,26.20
2021,06,28,01,02,26.20
2021,06,28,01,03,26.20
2021,06,28,01,04,26.20
2021,06,28,01,05,26.10
2021,06,28,01,06,26.10
2021,06,28,01,07,26.10
2021,06,28,01,08,26.00
2021,06,28,01,09,26.00
2021,06,28,01,10,26.00
2021,06,28,01,11,26.00
2021,06,28,01,12,25.90
2021,06,28,01,13,25.90
2021,06,28,01,14,25.90
2021,06,28,01,15,25.90
2021,06,28,01,16,25.90
2021,06,28,01,17,25.80
2021,06,28,01,18,25.80
2021,06,28,01,19,25.80
2021,06,28,01,20,25.80
2021,06,28,01,21,25.80
2021,06,28,01,22,25.70
2021,06,28,01,23,25.80
2021,06,28,01,24,25.90
2021,06,28,01,25,26.00
2021,06,28,01,26,26.00
2021,06,28,01,27,26.10
2021,06,28,01,28,26.10
2021,06,28,01,29,26.10
2021,06,28,01,30,26.10
2021,06,28,01,31,26.10
2021,06,28,01,32,26.10
2021,06,28,01,33,26.10
2021,06,28,01,34,26.10
2021,06,28,01,35,26.00
2021,06,28,01,36,26.00
2021,06,28,01,37,25.90
2021,06,28,01,38,25.90
2021,06,28,01,39,25.90
2021,06,28,01,40,25.90
2021,06,28,01,41,25.90
2021,06,28,01,42,25.80
2021,06,28,01,43,25.90
2021,06,28,01,44,25.90
2021,06,28,01,45,25.80
2021,06,28,01,46,25.80
2021,06,28,01,47,25.80
2021,06,28,01,48,25.80
2021,06,28,01,49,25.80
2021,06,28,01,50,25.80
2021,06,28,01,51,25.70
2021,06,28,01,52,25.70
2021,06,28,01,53,25.70
2021,06,28,01,54,25.60
2021,06,28,01,55,25.60
2021,06,28,01,56,25.50
2021,06,28,01,57,25.50
2021,06,28,01,58,25.40
2021,06,28,01,59,25.40
2021,06,28,02,00,25.40
2021,06,28,02,01,25.40
2021,06,28,02,02,25.30
2021,06,28,02,03,25.30
2021,06,28,02,04,25.20
2021,06,28,02,05,25.20
2021,06,28,02,06,25.20
2021,06,28,02,07,25.20
2021,06,28,02,08,25.10
2021,06,28,02,09,25.20
2021,06,28,02,10,25.20
2021,06,28,02,11,25.20
2021,06,28,02,12,25.30
2021,06,28,02,13,25.50
2021,06,28,02,14,25.60
2021,06,28,02,15,25.80
2021,06,28,02,16,25.90
2021,06,28,02,17,26.00
2021,06,28,02,18,26.10
2021,06,28,02,19,26.10
2021,06,28,02,20,26.10
2021,06,28,02,21,26.10
2021,06,28,02,22,26.20
2021,06,28,02,23,26.20
2021,06,28,02,24,26.30
2021,06,28,02,25,26.30
2021,06,28,02,26,26.30
2021,06,28,02,27,26.30
2021,06,28,02,28,26.30
2021,06,28,02,29,26.30
2021,06,28,02,30,26.20
2021,06,28,02,31,26.20
2021,06,28,02,32,26.20
2021,06,28,02,33,26.10
2021,06,28,02,34,26.10
2021,06,28,02,35,26.00
2021,06,28,02,36,25.90
2021,06,28,02,37,25.80
2021,06,28,02,38,25.80
2021,06,28,02,39,25.80
2021,06,28,02,40,25.80
2021,06,28,02,41,25.70
2021,06,28,02,42,25.70
2021,06,28,02,43,25.70
2021,06,28,02,44,25.70
2021,06,28,02,45,25.70
2021,06,28,02,46,25.70
2021,06,28,02,47,25.80
2021,06,28,02,48,25.90
2021,06,28,02,49,26.00
2021,06,28,02,50,26.10
2021,06,28,02,51,26.20
2021,06,28,02,52,26.30
2021,06,28,02,53,26.50
2021,06,28,02,54,26.50
2021,06,28,02,55,26.60
2021,06,28,02,56,26.60
2021,06,28,02,57,26.70
2021,06,28,02,58,26.80
2021,06,28,02,59,26.80
2021,06,28,03,00,26.90
2021,06,28,03,01,26.90
2021,06,28,03,02,27.00
2021,06,28,03,03,27.10
2021,06,28,03,04,27.10
2021,06,28,03,05,27.10
2021,06,28,03,06,27.20
2021,06,28,03,07,27.20
2021,06,28,03,08,27.20
2021,06,28,03,09,27.10
2021,06,28,03,10,27.10
2021,06,28,03,11,27.10
2021,06,28,03,12,27.10
2021,06,28,03,13,27.00
2021,06,28,03,14,26.90
2021,06,28,03,15,26.80
2021,06,28,03,16,26.70
2021,06,28,03,17,26.70
2021,06,28,03,18,26.60
2021,06,28,03,19,26.70
2021,06,28,03,20,26.70
2021,06,28,03,21,26.80
2021,06,28,03,22,26.80
2021,06,28,03,23,26.90
2021,06,28,03,24,27.00
2021,06,28,03,25,27.00
2021,06,28,03,26,27.00
2021,06,28,03,27,27.00
2021,06,28,03,28,26.90
2021,06,28,03,29,26.90
2021,06,28,03,30,26.80
2021,06,28,03,31,26.70
2021,06,28,03,32,26.70
2021,06,28,03,33,26.60
2021,06,28,03,34,26.60
2021,06,28,03,35,26.50
2021,06,28,03,36,26.40
2021,06,28,03,37,26.30
2021,06,28,03,38,26.30
2021,06,28,03,39,26.20
2021,06,28,03,40,26.10
2021,06,28,03,41,26.10
2021,06,28,03,42,26.10
2021,06,28,03,43,26.10
2021,06,28,03,44,26.20
2021,06,28,03,45,26.30
2021,06,28,03,46,26.50
2021,06,28,03,47,26.70
2021,06,28,03,48,26.80
2021,06,28,03,49,27.00
2021,06,28,03,50,27.10
2021,06,28,03,51,27.20
2021,06,28,03,52,27.30
2021,06,28,03,53,27.40
2021,06,28,03,54,27.50
2021,06,28,03,55,27.50
2021,06,28,03,56,27.60
2021,06,28,03,57,27.50
2021,06,28,03,58,27.40
2021,06,28,03,59,27.40
2021,06,28,04,00,27.30
2021,06,28,04,01,27.30
2021,06,28,04,02,27.30
2021,06,28,04,03,27.20
2021,06,28,04,04,27.20
2021,06,28,04,05,27.10
2021,06,28,04,06,26.90
2021,06,28,04,07,26.80
2021,06,28,04,08,26.60
2021,06,28,04,09,26.50
2021,06,28,04,10,26.40
2021,06,28,04,11,26.30
2021,06,28,04,12,26.20
2021,06,28,04,13,26.20
2021,06,28,04,14,26.20
2021,06,28,04,15,26.20
2021,06,28,04,16,26.20
2021,06,28,04,17,26.10
2021,06,28,04,18,26.10
2021,06,28,04,19,26.10
2021,06,28,04,20,26.00
2021,06,28,04,21,26.00
2021,06,28,04,22,25.90
2021,06,28,04,23,25.80
2021,06,28,04,24,25.80
2021,06,28,04,25,25.70
2021,06,28,04,26,25.60
2021,06,28,04,27,25.60
2021,06,28,04,28,25.60
2021,06,28,04,29,25.70
2021,06,28,04,30,25.70
2021,06,28,04,31,25.70
2021,06,28,04,32,25.60
2021,06,28,04,33,25.60
2021,06,28,04,34,25.50
2021,06,28,04,35,25.40
2021,06,28,04,36,25.40
2021,06,28,04,37,25.40
2021,06,28,04,38,25.40
2021,06,28,04,39,25.50
2021,06,28,04,40,25.50
2021,06,28,04,41,25.50
2021,06,28,04,42,25.50
2021,06,28,04,43,25.50
2021,06,28,04,44,25.40
2021,06,28,04,45,25.40
2021,06,28,04,46,25.30
2021,06,28,04,47,25.30
2021,06,28,04,48,25.30
2021,06,28,04,49,25.20
2021,06,28,04,50,25.20
2021,06,28,04,51,25.20
2021,06,28,04,52,25.10
2021,06,28,04,53,25.20
2021,06,28,04,54,25.20
2021,06,28,04,55,25.20
2021,06,28,04,56,25.10
2021,06,28,04,57,25.10
2021,06,28,04,58,25.10
2021,06,28,04,59,25.10
2021,06,28,05,00,25.10
2021,06,28,05,01,25.10
2021,06,28,05,02,25.10
2021,06,28,05,03,25.10
2021,06,28,05,04,25.00
2021,06,28,05,05,25.00
2021,06,28,05,06,25.00
2021,06,28,05,07,25.00
2021,06,28,05,08,24.90
2021,06,28,05,09,24.90
2021,06,28,05,10,24.90
2021,06,28,05,11,24.90
2021,06,28,05,12,24.90
2021,06,28,05,13,24.90
2021,06,28,05,14,24.90
2021,06,28,05,15,24.90
2021,06,28,05,16,24.90
2021,06,28,05,17,24.90
2021,06,28,05,18,24.90
2021,06,28,05,19,24.90
2021,06,28,05,20,24.80
2021,06,28,05,21,24.70
2021,06,28,05,22,24.70
2021,06,28,05,23,24.70
2021,06,28,05,24,24.70
2021,06,28,05,25,24.70
2021,06,28,05,26,24.70
2021,06,28,05,27,24.70
2021,06,28,05,28,24.70
2021,06,28,05,29,24.70
2021,06,28,05,30,24.70
2021,06,28,05,31,24.70
2021,06,28,05,32,24.70
2021,06,28,05,33,24.70
2021,06,28,05,34,24.70
2021,06,28,05,35,24.70
2021,06,28,05,36,24.70
2021,06,28,05,37,24.70
2021,06,28,05,38,24.70
2021,06,28,05,39,24.60
2021,06,28,05,40,24.60
2021,06,28,05,41,24.60
2021,06,28,05,42,24.50
2021,06,28,05,43,24.40
2021,06,28,05,44,24.40
2021,06,28,05,45,24.40
2021,06,28,05,46,24.40
2021,06,28,05,47,24.50
2021,06,28,05,48,24.40
2021,06,28,05,49,24.40
2021,06,28,05,50,24.40
2021,06,28,05,51,24.40
2021,06,28,05,52,24.40
2021,06,28,05,53,24.40
2021,06,28,05,54,24.40
2021,06,28,05,55,24.50
2021,06,28,05,56,24.50
2021,06,28,05,57,24.60
2021,06,28,05,58,24.50
2021,06,28,05,59,24.50
2021,06,28,06,00,24.40
2021,06,28,06,01,24.40
2021,06,28,06,02,24.40
2021,06,28,06,03,24.50
2021,06,28,06,04,24.50
2021,06,28,06,05,24.60
2021,06,28,06,06,24.70
2021,06,28,06,07,24.80
2021,06,28,06,08,24.90
2021,06,28,06,09,24.90
2021,06,28,06,10,25.00
2021,06,28,06,11,25.10
2021,06,28,06,12,25.20
2021,06,28,06,13,25.30
2021,06,28,06,14,25.30
2021,06,28,06,15,25.30
2021,06,28,06,16,25.30
2021,06,28,06,17,25.30
2021,06,28,06,18,25.40
2021,06,28,06,19,25.40
2021,06,28,06,20,25.40
2021,06,28,06,21,25.50
2021,06,28,06,22,25.50
2021,06,28,06,23,25.50
2021,06,28,06,24,25.50
2021,06,28,06,25,25.50
2021,06,28,06,26,25.60
2021,06,28,06,27,25.60
2021,06,28,06,28,25.70
2021,06,28,06,29,25.80
2021,06,28,06,30,25.80
2021,06,28,06,31,25.80
2021,06,28,06,32,25.90
2021,06,28,06,33,25.90
2021,06,28,06,34,25.90
2021,06,28,06,35,25.90
2021,06,28,06,36,26.00
2021,06,28,06,37,26.00
2021,06,28,06,38,26.00
2021,06,28,06,39,26.00
2021,06,28,06,40,26.10
2021,06,28,06,41,26.20
2021,06,28,06,42,26.20
2021,06,28,06,43,26.30
2021,06,28,06,44,26.30
2021,06,28,06,45,26.50
2021,06,28,06,46,26.60
2021,06,28,06,47,26.70
2021,06,28,06,48,26.90
2021,06,28,06,49,27.10
2021,06,28,06,50,27.20
2021,06,28,06,51,27.30
2021,06,28,06,52,27.50
2021,06,28,06,53,27.60
2021,06,28,06,54,27.70
2021,06,28,06,55,27.80
2021,06,28,06,56,27.90
2021,06,28,06,57,27.90
2021,06,28,06,58,28.00
2021,06,28,06,59,28.00
2021,06,28,07,00,28.10
2021,06,28,07,01,28.10
2021,06,28,07,02,28.10
2021,06,28,07,03,28.10
2021,06,28,07,04,28.20
2021,06,28,07,05,28.20
2021,06,28,07,06,28.30
2021,06,28,07,07,28.30
2021,06,28,07,08,28.40
2021,06,28,07,09,28.50
2021,06,28,07,10,28.60
2021,06,28,07,11,28.70
2021,06,28,07,12,28.80
2021,06,28,07,13,28.90
2021,06,28,07,14,29.00
2021,06,28,07,15,29.10
2021,06,28,07,16,29.10
2021,06,28,07,17,29.00
2021,06,28,07,18,29.10
2021,06,28,07,19,29.10
2021,06,28,07,20,29.10
2021,06,28,07,21,29.10
2021,06,28,07,22,29.20
2021,06,28,07,23,29.20
2021,06,28,07,24,29.20
2021,06,28,07,25,29.20
2021,06,28,07,26,29.30
2021,06,28,07,27,29.20
2021,06,28,07,28,29.20
2021,06,28,07,29,29.20
2021,06,28,07,30,29.20
2021,06,28,07,31,29.20
2021,06,28,07,32,29.40
2021,06,28,07,33,29.50
2021,06,28,07,34,29.60
2021,06,28,07,35,29.60
2021,06,28,07,36,29.80
2021,06,28,07,37,29.90
2021,06,28,07,38,29.90
2021,06,28,07,39,30.00
2021,06,28,07,40,30.00
2021,06,28,07,41,29.90
2021,06,28,07,42,29.80
2021,06,28,07,43,29.70
2021,06,28,07,44,29.60
2021,06,28,07,45,29.50
2021,06,28,07,46,29.40
2021,06,28,07,47,29.40
2021,06,28,07,48,29.40
2021,06,28,07,49,29.40
2021,06,28,07,50,29.40
2021,06,28,07,51,29.40
2021,06,28,07,52,29.40
2021,06,28,07,53,29.30
2021,06,28,07,54,29.30
2021,06,28,07,55,29.30
2021,06,28,07,56,29.20
2021,06,28,07,57,29.30
2021,06,28,07,58,29.30
2021,06,28,07,59,29.40
2021,06,28,08,00,29.40
2021,06,28,08,01,29.40
2021,06,28,08,02,29.40
2021,06,28,08,03,29.40
2021,06,28,08,04,29.40
2021,06,28,08,05,29.40
2021,06,28,08,06,29.30
2021,06,28,08,07,29.30
2021,06,28,08,08,29.30
2021,06,28,08,09,29.30
2021,06,28,08,10,29.20
2021,06,28,08,11,29.20
2021,06,28,08,12,29.30
2021,06,28,08,13,29.30
2021,06,28,08,14,29.40
2021,06,28,08,15,29.50
2021,06,28,08,16,29.60
2021,06,28,08,17,29.70
2021,06,28,08,18,29.70
2021,06,28,08,19,29.70
2021,06,28,08,20,29.70
2021,06,28,08,21,29.80
2021,06,28,08,22,30.00
2021,06,28,08,23,30.10
2021,06,28,08,24,30.20
2021,06,28,08,25,30.30
2021,06,28,08,26,30.40
2021,06,28,08,27,30.40
2021,06,28,08,28,30.50
2021,06,28,08,29,30.50
2021,06,28,08,30,30.60
2021,06,28,08,31,30.50
2021,06,28,08,32,30.50
2021,06,28,08,33,30.40
2021,06,28,08,34,30.30
2021,06,28,08,35,30.10
2021,06,28,08,36,29.90
2021,06,28,08,37,29.80
2021,06,28,08,38,29.70
2021,06,28,08,39,29.70
2021,06,28,08,40,29.70
2021,06,28,08,41,29.70
2021,06,28,08,42,29.60
2021,06,28,08,43,29.70
2021,06,28,08,44,29.60
2021,06,28,08,45,29.60
2021,06,28,08,46,29.60
2021,06,28,08,47,29.60
2021,06,28,08,48,29.60
2021,06,28,08,49,29.60
2021,06,28,08,50,29.60
2021,06,28,08,51,29.60
2021,06,28,08,52,29.60
2021,06,28,08,53,29.60
2021,06,28,08,54,29.60
2021,06,28,08,55,29.50
2021,06,28,08,56,29.50
2021,06,28,08,57,29.60
2021,06,28,08,58,29.60
2021,06,28,08,59,29.60
2021,06,28,09,00,29.60
2021,06,28,09,01,29.60
2021,06,28,09,02,29.60
2021,06,28,09,03,29.60
2021,06,28,09,04,29.60
2021,06,28,09,05,29.70
2021,06,28,09,06,29.70
2021,06,28,09,07,29.80
2021,06,28,09,08,29.80
2021,06,28,09,09,29.80
2021,06,28,09,10,29.90
2021,06,28,09,11,29.90
2021,06,28,09,12,30.00
2021,06,28,09,13,30.10
2021,06,28,09,14,30.20
2021,06,28,09,15,30.30
2021,06,28,09,16,30.40
2021,06,28,09,17,30.50
2021,06,28,09,18,30.60
2021,06,28,09,19,30.70
2021,06,28,09,20,30.80
2021,06,28,09,21,31.00
2021,06,28,09,22,31.10
2021,06,28,09,23,31.10
2021,06,28,09,24,31.10
2021,06,28,09,25,31.10
2021,06,28,09,26,31.20
2021,06,28,09,27,31.30
2021,06,28,09,28,31.30
2021,06,28,09,29,31.30
2021,06,28,09,30,31.30
2021,06,28,09,31,31.30
2021,06,28,09,32,31.40
2021,06,28,09,33,31.50
2021,06,28,09,34,31.60
2021,06,28,09,35,31.70
2021,06,28,09,36,31.70
2021,06,28,09,37,31.60
2021,06,28,09,38,31.60
2021,06,28,09,39,31.50
2021,06,28,09,40,31.40
2021,06,28,09,41,31.30
2021,06,28,09,42,31.30
2021,06,28,09,43,31.20
2021,06,28,09,44,31.10
2021,06,28,09,45,31.10
2021,06,28,09,46,31.10
2021,06,28,09,47,31.10
2021,06,28,09,48,31.10
2021,06,28,09,49,31.20
2021,06,28,09,50,31.30
2021,06,28,09,51,31.20
2021,06,28,09,52,31.30
2021,06,28,09,53,31.30
2021,06,28,09,54,31.30
2021,06,28,09,55,31.30
2021,06,28,09,56,31.30
2021,06,28,09,57,31.40
2021,06,28,09,58,31.40
2021,06,28,09,59,31.40
2021,06,28,10,00,31.30
2021,06,28,10,01,31.30
2021,06,28,10,02,31.20
2021,06,28,10,03,31.10
2021,06,28,10,04,31.00
2021,06,28,10,05,31.00
2021,06,28,10,06,31.10
2021,06,28,10,07,31.10
2021,06,28,10,08,31.10
2021,06,28,10,09,31.20
2021,06,28,10,10,31.30
2021,06,28,10,11,31.30
2021,06,28,10,12,31.40
2021,06,28,10,13,31.40
2021,06,28,10,14,31.50
2021,06,28,10,15,31.60
2021,06,28,10,16,31.60
2021,06,28,10,17,31.60
2021,06,28,10,18,31.70
2021,06,28,10,19,31.60
2021,06,28,10,20,31.70
2021,06,28,10,21,31.70
2021,06,28,10,22,31.70
2021,06,28,10,23,31.80
2021,06,28,10,24,31.90
2021,06,28,10,25,32.00
2021,06,28,10,26,32.10
2021,06,28,10,27,32.20
2021,06,28,10,28,32.30
2021,06,28,10,29,32.40
2021,06,28,10,30,32.40
2021,06,28,10,31,32.50
2021,06,28,10,32,32.50
2021,06,28,10,33,32.60
2021,06,28,10,34,32.60
2021,06,28,10,35,32.70
2021,06,28,10,36,32.60
2021,06,28,10,37,32.60
2021,06,28,10,38,32.40
2021,06,28,10,39,32.40
2021,06,28,10,40,32.30
2021,06,28,10,41,32.30
2021,06,28,10,42,32.30
2021,06,28,10,43,32.20
2021,06,28,10,44,32.20
2021,06,28,10,45,32.20
2021,06,28,10,46,32.30
2021,06,28,10,47,32.30
2021,06,28,10,48,32.50
2021,06,28,10,49,32.60
2021,06,28,10,50,32.70
2021,06,28,10,51,32.80
2021,06,28,10,52,32.90
2021,06,28,10,53,32.90
2021,06,28,10,54,33.00
2021,06,28,10,55,33.10
2021,06,28,10,56,33.10
2021,06,28,10,57,33.20
2021,06,28,10,58,33.30
2021,06,28,10,59,33.50
2021,06,28,11,00,33.60
2021,06,28,11,01,33.60
2021,06,28,11,02,33.70
2021,06,28,11,03,33.70
2021,06,28,11,04,33.80
2021,06,28,11,05,33.80
2021,06,28,11,06,33.70
2021,06,28,11,07,33.60
2021,06,28,11,08,33.60
2021,06,28,11,09,33.60
2021,06,28,11,10,33.60
2021,06,28,11,11,33.50
2021,06,28,11,12,33.50
2021,06,28,11,13,33.40
2021,06,28,11,14,33.50
2021,06,28,11,15,33.60
2021,06,28,11,16,33.60
2021,06,28,11,17,33.60
2021,06,28,11,18,33.70
2021,06,28,11,19,33.80
2021,06,28,11,20,33.80
2021,06,28,11,21,33.70
2021,06,28,11,22,33.60
2021,06,28,11,23,33.50
2021,06,28,11,24,33.50
2021,06,28,11,25,33.40
2021,06,28,11,26,33.40
2021,06,28,11,27,33.50
2021,06,28,11,28,33.50
2021,06,28,11,29,33.50
2021,06,28,11,30,33.50
2021,06,28,11,31,33.40
2021,06,28,11,32,33.40
2021,06,28,11,33,33.30
2021,06,28,11,34,33.30
2021,06,28,11,35,33.30
2021,06,28,11,36,33.30
2021,06,28,11,37,33.50
2021,06,28,11,38,33.60
2021,06,28,11,39,33.60
2021,06,28,11,40,33.70
2021,06,28,11,41,33.70
2021,06,28,11,42,33.80
2021,06,28,11,43,33.80
2021,06,28,11,44,33.70
2021,06,28,11,45,33.60
2021,06,28,11,46,33.40
2021,06,28,11,47,33.40
2021,06,28,11,48,33.30
2021,06,28,11,49,33.30
2021,06,28,11,50,33.30
2021,06,28,11,51,33.40
2021,06,28,11,52,33.50
2021,06,28,11,53,33.70
2021,06,28,11,54,33.90
2021,06,28,11,55,34.00
2021,06,28,11,56,34.10
2021,06,28,11,57,34.20
2021,06,28,11,58,34.20
2021,06,28,11,59,34.20
2021,06,28,12,00,34.10
2021,06,28,12,01,34.00
2021,06,28,12,02,34.10
2021,06,28,12,03,34.20
2021,06,28,12,04,34.30
2021,06,28,12,05,34.30
2021,06,28,12,06,34.40
2021,06,28,12,07,34.40
2021,06,28,12,08,34.40
2021,06,28,12,09,34.30
2021,06,28,12,10,34.30
2021,06,28,12,11,34.30
2021,06,28,12,12,34.30
2021,06,28,12,13,34.30
2021,06,28,12,14,34.30
2021,06,28,12,15,34.40
2021,06,28,12,16,34.50
2021,06,28,12,17,34.60
2021,06,28,12,18,34.60
2021,06,28,12,19,34.50
2021,06,28,12,20,34.40
2021,06,28,12,21,34.50
2021,06,28,12,22,34.50
2021,06,28,12,23,34.50
2021,06,28,12,24,34.60
2021,06,28,12,25,34.70
2021,06,28,12,26,34.80
2021,06,28,12,27,34.80
2021,06,28,12,28,34.80
2021,06,28,12,29,34.80
2021,06,28,12,30,34.80
2021,06,28,12,31,34.70
2021,06,28,12,32,34.80
2021,06,28,12,33,34.80
2021,06,28,12,34,34.80
2021,06,28,12,35,34.80
2021,06,28,12,36,34.80
2021,06,28,12,37,34.70
2021,06,28,12,38,34.70
2021,06,28,12,39,34.70
2021,06,28,12,40,34.70
2021,06,28,12,41,34.80
2021,06,28,12,42,34.90
2021,06,28,12,43,35.00
2021,06,28,12,44,35.00
2021,06,28,12,45,35.00
2021,06,28,12,46,35.10
2021,06,28,12,47,35.10
2021,06,28,12,48,35.10
2021,06,28,12,49,35.10
2021,06,28,12,50,35.20
2021,06,28,12,51,35.30
2021,06,28,12,52,35.40
2021,06,28,12,53,35.60
2021,06,28,12,54,35.70
2021,06,28,12,55,35.70
2021,06,28,12,56,35.50
2021,06,28,12,57,35.50
2021,06,28,12,58,35.40
2021,06,28,12,59,35.30
2021,06,28,13,00,35.40
2021,06,28,13,01,35.40
2021,06,28,13,02,35.30
2021,06,28,13,03,35.20
2021,06,28,13,04,35.30
2021,06,28,13,05,35.30
2021,06,28,13,06,35.20
2021,06,28,13,07,35.30
2021,06,28,13,08,35.40
2021,06,28,13,09,35.50
2021,06,28,13,10,35.60
2021,06,28,13,11,35.50
2021,06,28,13,12,35.50
2021,06,28,13,13,35.40
2021,06,28,13,14,35.40
2021,06,28,13,15,35.40
2021,06,28,13,16,35.50
2021,06,28,13,17,35.50
2021,06,28,13,18,35.60
2021,06,28,13,19,35.60
2021,06,28,13,20,35.70
2021,06,28,13,21,35.70
2021,06,28,13,22,35.70
2021,06,28,13,23,35.80
2021,06,28,13,24,35.90
2021,06,28,13,25,36.00
2021,06,28,13,26,36.00
2021,06,28,13,27,36.10
2021,06,28,13,28,36.00
2021,06,28,13,29,35.90
2021,06,28,13,30,35.90
2021,06,28,13,31,36.00
2021,06,28,13,32,36.10
2021,06,28,13,33,36.10
2021,06,28,13,34,36.00
2021,06,28,13,35,36.20
2021,06,28,13,36,36.40
2021,06,28,13,37,36.40
2021,06,28,13,38,36.20
2021,06,28,13,39,36.10
2021,06,28,13,40,36.10
2021,06,28,13,41,36.00
2021,06,28,13,42,35.90
2021,06,28,13,43,36.10
2021,06,28,13,44,36.10
2021,06,28,13,45,36.00
2021,06,28,13,46,35.90
2021,06,28,13,47,35.90
2021,06,28,13,48,35.80
2021,06,28,13,49,35.80
2021,06,28,13,50,35.70
2021,06,28,13,51,35.70
2021,06,28,13,52,35.60
2021,06,28,13,53,35.60
2021,06,28,13,54,35.80
2021,06,28,13,55,36.00
2021,06,28,13,56,36.10
2021,06,28,13,57,36.20
2021,06,28,13,58,36.40
2021,06,28,13,59,36.50
2021,06,28,14,00,36.60
2021,06,28,14,01,36.60
2021,06,28,14,02,36.60
2021,06,28,14,03,36.60
2021,06,28,14,04,36.60
2021,06,28,14,05,36.70
2021,06,28,14,06,36.70
2021,06,28,14,07,36.70
2021,06,28,14,08,36.70
2021,06,28,14,09,36.80
2021,06,28,14,10,36.80
2021,06,28,14,11,36.80
2021,06,28,14,12,36.90
2021,06,28,14,13,36.90
2021,06,28,14,14,36.80
2021,06,28,14,15,36.80
2021,06,28,14,16,36.80
2021,06,28,14,17,36.90
2021,06,28,14,18,36.90
2021,06,28,14,19,36.90
2021,06,28,14,20,36.90
2021,06,28,14,21,36.90
2021,06,28,14,22,36.90
2021,06,28,14,23,36.90
2021,06,28,14,24,37.00
2021,06,28,14,25,37.00
2021,06,28,14,26,36.90
2021,06,28,14,27,36.90
2021,06,28,14,28,37.00
2021,06,28,14,29,37.10
2021,06,28,14,30,37.10
2021,06,28,14,31,37.20
2021,06,28,14,32,37.30
2021,06,28,14,33,37.30
2021,06,28,14,34,37.30
2021,06,28,14,35,37.40
2021,06,28,14,36,37.40
2021,06,28,14,37,37.40
2021,06,28,14,38,37.30
2021,06,28,14,39,37.40
2021,06,28,14,40,37.30
2021,06,28,14,41,37.40
2021,06,28,14,42,37.50
2021,06,28,14,43,37.50
2021,06,28,14,44,37.60
2021,06,28,14,45,37.50
2021,06,28,14,46,37.50
2021,06,28,14,47,37.30
2021,06,28,14,48,37.30
2021,06,28,14,49,37.30
2021,06,28,14,50,37.30
2021,06,28,14,51,37.30
2021,06,28,14,52,37.30
2021,06,28,14,53,37.30
2021,06,28,14,54,37.20
2021,06,28,14,55,37.10
2021,06,28,14,56,37.00
2021,06,28,14,57,37.10
2021,06,28,14,58,37.10
2021,06,28,14,59,37.00
2021,06,28,15,00,37.00
2021,06,28,15,01,37.00
2021,06,28,15,02,37.10
2021,06,28,15,03,37.20
2021,06,28,15,04,37.40
2021,06,28,15,05,37.50
2021,06,28,15,06,37.70
2021,06,28,15,07,37.80
2021,06,28,15,08,37.90
2021,06,28,15,09,37.90
2021,06,28,15,10,37.90
2021,06,28,15,11,38.00
2021,06,28,15,12,38.00
2021,06,28,15,13,38.00
2021,06,28,15,14,37.90
2021,06,28,15,15,38.00
2021,06,28,15,16,37.90
2021,06,28,15,17,37.80
2021,06,28,15,18,37.80
2021,06,28,15,19,37.80
2021,06,28,15,20,37.80
2021,06,28,15,21,37.80
2021,06,28,15,22,37.90
2021,06,28,15,23,37.90
2021,06,28,15,24,38.00
2021,06,28,15,25,38.00
2021,06,28,15,26,38.00
2021,06,28,15,27,38.10
2021,06,28,15,28,38.30
2021,06,28,15,29,38.40
2021,06,28,15,30,38.40
2021,06,28,15,31,38.40
2021,06,28,15,32,38.30
2021,06,28,15,33,38.30
2021,06,28,15,34,38.20
2021,06,28,15,35,38.20
2021,06,28,15,36,38.20
2021,06,28,15,37,38.30
2021,06,28,15,38,38.30
2021,06,28,15,39,38.30
2021,06,28,15,40,38.30
2021,06,28,15,41,38.30
2021,06,28,15,42,38.30
2021,06,28,15,43,38.30
2021,06,28,15,44,38.30
2021,06,28,15,45,38.30
2021,06,28,15,46,38.30
2021,06,28,15,47,38.30
2021,06,28,15,48,38.40
2021,06,28,15,49,38.30
2021,06,28,15,50,38.30
2021,06,28,15,51,38.30
2021,06,28,15,52,38.40
2021,06,28,15,53,38.50
2021,06,28,15,54,38.50
2021,06,28,15,55,38.60
2021,06,28,15,56,38.60
2021,06,28,15,57,38.70
2021,06,28,15,58,38.80
2021,06,28,15,59,38.90
2021,06,28,16,00,39.00
2021,06,28,16,01,39.00
2021,06,28,16,02,39.00
2021,06,28,16,03,39.00
2021,06,28,16,04,39.00
2021,06,28,16,05,38.90
2021,06,28,16,06,38.90
2021,06,28,16,07,38.80
2021,06,28,16,08,38.80
2021,06,28,16,09,38.80
2021,06,28,16,10,38.80
2021,06,28,16,11,38.80
2021,06,28,16,12,38.80
2021,06,28,16,13,38.80
2021,06,28,16,14,38.80
2021,06,28,16,15,38.90
2021,06,28,16,16,38.90
2021,06,28,16,17,38.90
2021,06,28,16,18,38.90
2021,06,28,16,19,38.90
2021,06,28,16,20,38.90
2021,06,28,16,21,39.00
2021,06,28,16,22,39.10
2021,06,28,16,23,39.20
2021,06,28,16,24,39.10
2021,06,28,16,25,39.00
2021,06,28,16,26,38.90
2021,06,28,16,27,38.80
2021,06,28,16,28,38.70
2021,06,28,16,29,38.70
2021,06,28,16,30,38.80
2021,06,28,16,31,38.80
2021,06,28,16,32,38.90
2021,06,28,16,33,39.00
2021,06,28,16,34,39.10
2021,06,28,16,35,39.10
2021,06,28,16,36,39.10
2021,06,28,16,37,39.00
2021,06,28,16,38,38.90
2021,06,28,16,39,38.90
2021,06,28,16,40,38.90
2021,06,28,16,41,38.80
2021,06,28,16,42,38.80
2021,06,28,16,43,38.70
2021,06,28,16,44,38.70
2021,06,28,16,45,38.60
2021,06,28,16,46,38.50
2021,06,28,16,47,38.40
2021,06,28,16,48,38.50
2021,06,28,16,49,38.60
2021,06,28,16,50,38.60
2021,06,28,16,51,38.50
2021,06,28,16,52,38.40
2021,06,28,16,53,38.40
2021,06,28,16,54,38.40
2021,06,28,16,55,38.30
2021,06,28,16,56,38.30
2021,06,28,16,57,38.30
2021,06,28,16,58,38.40
2021,06,28,16,59,38.40
2021,06,28,17,00,38.40
2021,06,28,17,01,38.40
2021,06,28,17,02,38.40
2021,06,28,17,03,38.30
2021,06,28,17,04,38.30
2021,06,28,17,05,38.30
2021,06,28,17,06,38.30
2021,06,28,17,07,38.40
2021,06,28,17,08,38.40
2021,06,28,17,09,38.50
2021,06,28,17,10,38.50
2021,06,28,17,11,38.50
2021,06,28,17,12,38.60
2021,06,28,17,13,38.70
2021,06,28,17,14,38.70
2021,06,28,17,15,38.70
2021,06,28,17,16,38.80
2021,06,28,17,17,38.80
2021,06,28,17,18,38.90
2021,06,28,17,19,38.90